Tracking 25378 objects as of 22-Jan-2022
HD Live streaming from Space Station
objects crossing your sky now

COSMOS 457

Track COSMOS 457 now!
10-day predictions
COSMOS 457 is classified as:


NORAD ID: 5614
Int'l Code: 1971-099A
Perigee: 1,189.9 km
Apogee: 1,224.1 km
Inclination: 74.0 °
Period: 109.4 minutes
Semi major axis: 7577 km
RCS: 3.3674 m2 (large)
Launch date: November 20, 1971
Source: Commonwealth of Independent States (former USSR) (CIS)
Launch site: PLESETSK MISSILE AND SPACE COMPLEX (PKMTR)
aabbcc
Your satellite tracking list
Your tracking list is empty




NASA's NSSDC Master Catalog

Two Line Element Set (TLE):
1 05614U 71099A   22021.38748833  .00000139  00000-0  41586-3 0  9993
2 05614  74.0341 258.6487 0022551 121.6478  51.4320 13.16053847410032
Source of the keplerian elements: AFSPC